Skip Page Navigation
NASA JPL Caltech
NASA Logo - Jet Propulsion Laboratory + View the NASA Portal
+ Center for Near-Earth Object Studies
JPL Home Earth Solar System Stars & Galaxies Technology
JPL Solar System Dynamics
BODIES ORBITS EPHEMERIDES TOOLS PHYSICAL DATA DISCOVERY FAQ SITE MAP
JPL Small-Body Database Browser
Search: [ help ]  
190135 (2005 QE30)
Classification: Apollo [NEO]          SPK-ID: 2190135
Ephemeris | Orbit Diagram | Orbital Elements | Mission Design | Physical Parameters | Discovery Circumstances | Close-Approach Data ]

[ show orbit diagram ]
Orbital Elements at Epoch 2459396.5 (2021-Jul-01.0) TDB
Reference: JPL 64 (heliocentric ecliptic J2000)
 Element Value Uncertainty (1-sigma)   Units 
e .689083040293001 5.2325e-08  
a 2.017622691268034 2.6709e-08 au
q .6273131130049102 1.0985e-07 au
i 6.229844003922377 7.0134e-06 deg
node 259.8458559600256 0.00010993 deg
peri 216.9611696414871 0.00011293 deg
M 129.249174324688 3.622e-05 deg
tp 2459020.676758674943
(2020-Jun-20.17675867)
9.8032e-05 TDB
period 1046.787088458618
2.87
2.0785e-05
5.691e-08
d
yr
n .3439094768833039 6.8288e-09 deg/d
Q 3.407932269531158 4.5113e-08 au
  Orbit Determination Parameters
   # obs. used (total)      275  
   data-arc span      6226 days (17.05 yr)  
   first obs. used      2002-08-17  
   last obs. used      2019-09-03  
   planetary ephem.      DE441  
   SB-pert. ephem.      SB441-N16  
   condition code      0  
   norm. resid. RMS      .51718  
   source      ORB  
   producer      Otto Matic  
   solution date      2021-Apr-13 22:06:24  

Additional Information
 Earth MOID = .0787096 au 
 Jupiter MOID = 1.75041 au 
 T_jup = 3.476 
[ hide covariance matrix ]
Orbital Elements at Epoch 2455119.5 (2009-Oct-15.0) TDB
Reference: JPL 64 (heliocentric ecliptic J2000)
 Element Value Uncertainty (1-sigma)   Units 
e .6892309045296506 5.2946e-08  
q .6267600361503016 1.115e-07 au
tp 2454833.975321523062
(2009-Jan-02.47532152)
2.4907e-05 TDB
node 259.9596277693559 0.00010962 deg
peri 216.8586969692008 0.00011262 deg
i 6.239898401799953 7.026e-06 deg
  Orbit Determination Parameters
   # obs. used (total)      275  
   data-arc span      6226 days (17.05 yr)  
   first obs. used      2002-08-17  
   last obs. used      2019-09-03  
   planetary ephem.      DE441  
   SB-pert. ephem.      SB441-N16  
   condition code      0  
   norm. resid. RMS      .51718  
   source      ORB  
   producer      Otto Matic  
   solution date      2021-Apr-13 22:06:24  

Additional Information
 Jupiter MOID = 1.75041 au 
 T_jup = 3.476 
Orbit Covariance (6×6)
  e q tp node peri i
e 2.803319365500647E-15 -5.889421092426755E-15 4.756058700434585E-13 -1.293637506924203E-12 1.609724852510865E-12 6.635571585780158E-15
q -5.889421092426755E-15 1.243141363296875E-14 -8.895620318097801E-13 2.780376755935115E-12 -3.440556917177936E-12 -7.556753963073226E-15
tp 4.756058700434585E-13 -8.895620318097801E-13 6.20369288008625E-10 -6.252682757032729E-10 8.166095994699498E-10 1.057667624782437E-11
node -1.293637506924203E-12 2.780376755935115E-12 -6.252682757032729E-10 1.20170151681566E-8 -1.228903838118859E-8 -2.605829484100584E-10
peri 1.609724852510865E-12 -3.440556917177936E-12 8.166095994699498E-10 -1.228903838118859E-8 1.268228974603854E-8 2.58764706206484E-10
i 6.635571585780158E-15 -7.556753963073226E-15 1.057667624782437E-11 -2.605829484100584E-10 2.58764706206484E-10 4.936425911524006E-11

Ephemeris | Orbit Diagram | Orbital Elements | Mission Design | Physical Parameters | Discovery Circumstances | Close-Approach Data ]

Physical Parameter Table
Parameter Symbol Value Units Sigma Reference Notes
absolute magnitude H 17.1   n/a MPO494049  

190135 (2005 QE30)          Discovered 2005-Aug-26 by NEAT at Palomar
Reference: 20080819/Numbers.arcLast Updated: 2008-08-25

[ show close-approach data ]
Ephemeris | Orbit Diagram | Orbital Elements | Mission Design | Physical Parameters | Discovery Circumstances | Close-Approach Data ]
ABOUT SSD CREDITS/AWARDS PRIVACY/COPYRIGHT GLOSSARY LINKS
FirstGov 2021-Jul-25 20:22 UT
(server date/time)  
NASA Home Page
Site Manager:   Ryan S. Park
Webmaster  Alan B. Chamberlin